Temperature
8 8 8 8 7 7 7 6 6 6 6 6 6 6 6 6 7 7 7 7 7 8 8 8 8 9 9 9 10 11 12 12 13 13 14 14 14 14 15 15 15 16 16
8 8 8 8 7 7 7 6 6 6 6 6 6 6 6 5 5 6 6 6 6 7 7 7 7 8 8 8 9 9 10 11 12 13 14 14 14 14 14 14 15 15 16
8 8 9 8 8 7 7 7 6 6 6 5 5 5 5 5 4 4 4 5 5 5 5 6 6 7 7 7 8 8 9 9 11 12 13 13 13 13 13 14 14 14 15
8 9 9 9 8 7 7 6 5 5 5 4 4 4 4 4 4 4 3 3 3 3 3 4 4 5 5 6 7 7 8 8 9 11 12 12 13 13 13 13 13 14 14
8 9 9 9 8 7 6 5 4 4 4 4 4 4 4 4 4 4 3 3 3 3 3 3 3 3 3 4 5 6 6 7 8 9 10 11 11 12 12 12 13 13 13
8 8 8 8 8 7 6 5 5 4 4 4 4 4 4 4 4 4 4 4 4 4 3 3 2 2 2 2 3 3 4 5 7 8 9 9 10 11 11 11 12 12 13
7 8 8 8 7 7 6 6 5 5 4 4 4 4 4 4 4 4 4 4 4 4 3 3 3 2 2 2 2 2 2 3 4 6 7 8 8 9 9 9 10 11 12
7 7 7 7 7 6 6 6 5 5 4 4 4 4 4 4 4 3 3 3 3 3 3 3 3 2 2 2 1 1 1 1 2 4 5 6 6 6 6 7 8 10 11
7 7 7 7 6 6 5 4 4 4 4 4 4 4 4 4 4 4 4 4 3 2 2 2 2 2 2 1 1 1 1 1 2 3 3 4 5 5 5 5 6 8 10
6 6 6 6 6 6 5 4 4 3 4 4 4 4 4 4 4 4 3 3 3 2 2 2 1 1 1 1 1 0 -0 -0 1 1 2 2 3 4 4 4 5 6 8
5 6 6 6 6 5 5 4 4 3 3 3 3 3 3 3 3 3 2 2 2 2 2 1 1 1 1 1 1 -0 -1 -1 -1 -0 0 1 2 3 3 3 3 4 6
5 5 6 6 5 5 4 3 3 3 3 2 2 2 2 2 1 1 1 1 0 0 0 -0 -0 -0 -0 -0 -0 -1 -1 -2 -2 -2 -1 -1 0 1 2 3 3 3 4
5 5 5 5 5 4 4 3 2 2 2 2 2 1 1 1 0 -0 -1 -1 -2 -2 -2 -3 -3 -3 -3 -3 -3 -3 -3 -4 -4 -3 -3 -2 -1 -0 0 1 2 2 3
4 4 4 4 4 4 3 3 2 1 1 1 1 0 -0 -1 -1 -2 -2 -3 -4 -5 -5 -6 -6 -6 -6 -5 -5 -5 -5 -5 -5 -5 -4 -3 -3 -2 -1 0 1 2 2
4 4 4 4 4 3 3 2 2 1 1 0 -0 -1 -1 -2 -2 -3 -4 -4 -5 -6 -7 -7 -7 -7 -7 -7 -7 -7 -7 -6 -6 -6 -5 -5 -4 -3 -2 -1 -0 1 2
4 4 4 4 4 3 2 2 1 1 0 0 -1 -1 -2 -3 -3 -4 -4 -5 -6 -7 -8 -8 -8 -8 -8 -8 -8 -8 -8 -8 -7 -7 -7 -6 -5 -4 -3 -2 -1 -0 1
4 3 3 3 3 3 2 1 1 1 0 -0 -1 -2 -2 -3 -4 -5 -5 -6 -7 -8 -8 -8 -9 -9 -9 -9 -9 -9 -9 -9 -8 -8 -8 -7 -6 -5 -4 -3 -2 -1 0
4 3 3 3 3 3 2 1 1 0 0 -0 -1 -2 -3 -4 -5 -5 -6 -7 -8 -8 -9 -9 -9 -9 -10 -10 -10 -10 -10 -9 -9 -9 -8 -8 -7 -6 -5 -4 -3 -2 -0
4 3 3 3 3 2 2 1 1 0 -0 -1 -1 -2 -4 -4 -5 -6 -7 -8 -9 -9 -9 -10 -10 -10 -10 -10 -10 -10 -10 -10 -10 -10 -9 -9 -8 -7 -5 -4 -3 -2 -1
3 3 2 2 2 2 2 1 1 0 -0 -1 -2 -3 -4 -5 -6 -7 -8 -8 -9 -9 -10 -10 -10 -10 -11 -11 -11 -11 -11 -11 -11 -10 -10 -9 -8 -7 -5 -4 -4 -3 -3
3 3 2 2 2 2 2 1 1 0 -0 -1 -2 -4 -5 -5 -7 -8 -8 -9 -9 -10 -10 -10 -11 -11 -11 -11 -11 -11 -11 -11 -11 -11 -10 -10 -9 -8 -7 -6 -5 -4 -4
4 2 1 1 1 2 2 1 0 -0 -1 -2 -4 -4 -5 -6 -7 -8 -9 -9 -10 -10 -10 -10 -11 -11 -11 -11 -11 -12 -12 -11 -11 -11 -11 -11 -10 -10 -9 -7 -6 -5 -5
3 2 1 1 2 1 1 1 -0 -1 -1 -3 -4 -4 -5 -7 -8 -8 -9 -10 -10 -10 -10 -10 -11 -11 -11 -11 -11 -12 -12 -12 -12 -12 -11 -11 -11 -10 -9 -8 -7 -6 -5
3 2 2 1 2 1 1 0 -0 -1 -2 -3 -4 -5 -6 -7 -8 -8 -9 -10 -10 -10 -10 -10 -10 -11 -11 -11 -11 -11 -12 -12 -12 -12 -12 -11 -11 -10 -10 -9 -8 -7 -6
4 2 2 1 1 1 1 0 -1 -1 -2 -3 -4 -5 -6 -7 -8 -9 -10 -10 -10 -10 -10 -11 -10 -11 -11 -11 -11 -11 -11 -11 -12 -12 -12 -11 -11 -10 -10 -9 -8 -7 -6
3 3 2 1 1 1 1 -0 -1 -1 -2 -3 -4 -5 -6 -7 -8 -9 -10 -10 -10 -11 -11 -11 -11 -10 -11 -11 -11 -11 -11 -11 -11 -11 -12 -12 -11 -10 -9 -9 -8 -7 -6
Wind_Speed
7 15 19 20 21 22 22 23 23 24 25 26 26 27 28 28 29 29 29 30 30 30 30 30 30 30 30 30 30 30 30 30 30 30 31 30 27 26 23 20 17 13 14
10 15 18 19 20 21 21 22 23 23 24 25 26 26 27 27 27 28 28 28 29 29 29 30 30 30 30 30 30 30 30 30 30 30 31 27 26 27 25 25 23 17 17
12 15 17 18 18 20 21 21 22 23 24 24 25 26 26 26 26 26 26 27 27 27 28 28 29 30 30 30 29 29 30 30 30 31 28 22 23 26 26 27 26 24 21
12 14 15 16 17 19 20 20 21 22 22 23 24 25 25 25 25 25 25 25 26 26 26 26 27 28 29 29 30 29 29 29 29 30 23 22 22 24 25 26 27 27 25
13 13 14 15 16 17 18 19 20 20 21 22 23 24 24 25 25 25 25 25 25 26 26 26 26 26 26 27 28 29 30 29 29 26 23 23 22 22 24 24 26 27 26
12 12 12 14 14 15 17 18 19 20 21 22 22 24 25 24 25 25 25 25 26 27 27 26 26 26 26 26 27 27 28 29 28 23 22 23 21 22 23 23 24 26 27
10 10 10 11 12 13 14 17 18 19 21 22 22 24 25 25 25 25 25 26 27 28 28 28 28 27 27 27 27 27 26 26 25 24 22 21 21 23 23 22 24 25 27
10 9 9 11 12 12 12 15 17 18 20 21 22 24 25 24 25 25 26 27 27 28 28 29 29 28 28 28 28 27 25 24 23 24 22 20 22 23 23 23 24 25 26
9 9 9 11 12 13 14 13 15 16 18 20 21 23 24 24 25 26 26 28 28 28 29 29 29 29 30 29 28 26 25 26 24 20 21 19 23 24 23 24 25 25 25
8 9 9 11 12 13 13 13 14 16 18 20 21 23 24 24 25 26 26 28 29 30 30 30 30 31 31 29 28 27 28 25 20 20 20 21 25 26 25 25 25 25 25
7 8 9 10 11 13 13 13 13 14 16 18 18 21 21 22 23 23 25 27 28 29 30 29 30 31 30 28 29 29 27 20 22 21 20 23 26 26 26 26 26 26 26
7 6 9 8 9 12 11 12 12 12 13 15 16 18 18 20 20 20 23 25 27 28 27 28 30 28 27 25 26 28 22 23 22 20 20 26 28 28 28 28 28 27 27
7 6 6 5 7 9 11 11 11 11 11 13 14 16 16 17 18 19 19 20 22 23 22 24 23 23 24 25 25 25 24 23 21 21 22 28 30 30 30 30 29 28 27
7 6 5 4 6 7 8 9 10 10 10 12 12 13 14 14 15 17 17 19 19 19 20 20 20 23 24 25 25 25 24 23 23 24 25 30 31 31 31 31 31 30 28
7 6 4 4 6 5 6 7 9 9 9 11 11 11 14 13 13 15 16 18 19 19 19 20 20 21 21 23 23 24 24 26 27 27 25 30 32 32 32 32 31 31 29
8 6 5 4 4 5 5 7 7 7 9 9 10 11 12 13 15 15 15 16 17 18 19 20 20 19 19 19 19 22 24 26 25 27 27 29 32 34 33 32 32 31 29
8 7 6 2 2 4 5 6 7 7 7 8 8 10 11 14 15 15 14 14 16 19 20 19 19 17 15 16 13 20 22 23 25 27 28 28 28 31 33 33 32 30 28
9 7 5 2 2 3 5 6 7 6 7 7 8 9 10 13 14 14 13 13 17 18 17 15 11 6 9 10 11 11 17 20 22 25 27 28 28 28 29 32 31 29 27
9 8 6 5 2 1 4 6 6 6 7 7 7 8 9 11 13 14 14 14 17 16 14 14 9 7 10 10 11 11 9 11 16 24 24 28 29 29 27 29 30 28 25
9 7 6 4 3 0 2 5 5 5 6 7 6 7 9 10 12 13 13 14 16 11 8 8 9 8 8 10 15 15 12 12 13 13 18 22 24 25 23 21 17 16 18
10 8 7 4 2 1 1 2 3 3 4 6 6 7 9 10 12 13 12 13 13 7 7 8 9 10 9 8 11 13 11 11 14 13 11 14 19 23 22 18 12 9 10
11 10 8 6 3 1 1 1 3 3 3 6 5 7 8 10 12 12 11 11 12 8 8 9 9 8 11 9 10 15 14 13 10 13 13 15 16 18 18 20 16 14 12
11 11 8 6 4 3 1 2 3 3 4 3 3 4 8 11 12 12 12 12 12 9 7 9 9 10 12 11 7 8 11 14 15 12 12 14 14 15 15 14 16 14 15
11 10 9 7 5 3 2 2 3 4 4 4 3 4 8 11 12 13 13 13 12 11 7 8 8 9 10 12 10 7 8 11 13 16 10 9 14 15 14 14 13 15 16
12 11 9 7 6 5 3 3 4 4 4 4 4 6 5 8 11 13 13 12 12 11 10 9 8 9 8 10 11 11 11 10 10 11 15 15 12 11 12 14 12 12 17
12 10 9 8 7 6 5 5 5 4 5 6 6 5 5 4 8 11 13 13 14 13 11 9 8 10 9 9 10 10 11 11 11 10 12 14 14 13 13 13 13 12 14
Wind_Direction
15 17 15 12 14 17 18 20 21 22 22 22 21 21 20 17 15 14 13 11 10 9 7 6 5 3 1 360 358 356 353 352 351 349 343 338 339 340 344 348 347 338 338
27 23 18 15 17 19 20 22 22 22 22 21 20 18 17 16 14 12 11 9 7 6 4 3 2 0 359 358 356 354 351 349 348 347 340 339 343 342 346 348 347 341 336
46 37 23 18 21 22 22 22 22 21 20 18 17 15 14 13 11 10 9 7 5 4 2 0 359 357 355 354 352 351 349 347 346 343 339 341 343 338 341 344 343 342 341
56 49 28 24 25 25 24 22 21 19 18 16 14 12 10 8 8 6 6 5 3 1 359 357 356 353 351 349 347 346 345 344 344 341 338 336 338 331 334 339 339 339 339
66 61 37 30 28 27 25 22 20 17 16 13 11 9 7 5 4 3 3 2 0 358 356 354 352 350 348 346 343 341 339 339 340 339 332 328 329 325 327 332 335 335 334
69 64 47 33 29 26 23 20 18 16 13 10 8 7 4 3 2 1 1 359 357 355 353 351 349 346 345 342 339 336 334 333 336 332 326 322 321 319 320 326 330 330 330
72 62 51 34 26 20 18 17 14 12 9 7 6 5 2 1 -0 359 359 357 354 352 350 348 346 344 342 339 336 333 330 329 329 327 320 315 315 315 316 321 325 325 325
74 58 40 29 22 13 12 12 7 6 5 4 4 3 1 360 359 358 357 355 351 349 348 346 343 342 340 337 334 332 329 328 324 316 311 309 313 313 314 318 320 320 319
78 63 39 32 22 7 4 8 1 2 2 2 3 2 1 0 358 356 356 351 349 348 346 344 341 341 338 335 334 332 330 327 321 308 309 315 310 308 311 314 314 314 314
93 73 46 31 20 7 356 358 359 0 1 1 2 1 1 359 356 353 352 348 347 347 345 342 342 340 337 336 335 333 331 329 318 318 317 310 303 304 305 307 309 310 309
98 78 60 34 16 6 355 357 356 357 0 360 0 359 359 357 353 349 346 345 345 344 342 340 340 338 338 336 333 330 331 323 320 316 308 301 300 301 302 303 304 305 305
93 74 64 43 19 12 357 351 353 354 359 355 360 359 357 355 348 346 342 341 341 339 339 337 336 337 335 330 328 326 321 316 315 309 306 305 304 302 300 299 299 299 300
97 82 68 53 36 22 354 350 346 350 357 351 356 356 357 351 344 340 339 334 334 334 334 331 332 332 329 325 322 319 316 316 312 309 307 304 301 299 297 295 294 294 294
112 99 74 48 51 29 356 338 341 350 354 346 350 354 356 345 340 339 334 332 332 331 330 331 332 327 323 322 320 316 316 317 314 310 305 301 300 298 295 293 291 290 288
129 117 97 60 51 21 350 340 344 344 344 338 345 353 351 347 343 337 334 332 330 331 333 333 328 324 323 320 317 317 318 316 311 307 304 302 299 297 295 291 288 286 283
139 129 104 60 33 8 358 346 332 332 330 339 342 348 350 355 345 338 333 329 329 333 332 327 324 322 319 316 316 318 315 312 309 308 307 305 301 296 293 290 287 283 280
141 136 127 135 42 13 353 332 317 313 328 334 340 347 353 356 344 340 330 327 329 330 329 325 319 317 318 320 318 315 310 308 307 306 304 301 297 294 291 288 285 281 276
146 146 135 134 40 5 337 314 307 321 333 332 344 344 352 349 342 339 329 323 325 329 325 319 314 322 318 314 311 308 306 304 303 305 304 300 296 291 287 285 283 280 276
156 148 151 142 170 340 316 311 321 331 332 335 337 337 343 342 340 337 323 318 326 323 318 319 327 316 312 311 309 305 306 309 306 304 302 298 292 284 278 275 275 276 274
147 146 161 158 156 27 328 326 319 328 330 323 320 324 339 338 335 330 316 320 321 316 313 313 310 308 308 309 311 311 305 301 302 299 299 306 307 293 281 274 272 278 277
154 163 169 167 153 130 56 331 317 319 308 307 308 326 337 331 325 317 312 313 314 309 306 306 310 310 309 308 312 311 304 298 296 298 304 317 311 312 307 302 300 301 295
169 168 168 165 151 158 132 279 261 270 274 283 298 334 328 319 314 312 310 307 306 304 304 306 309 308 312 316 312 312 312 310 301 307 310 304 308 315 317 314 314 308 297
174 166 164 145 176 189 157 267 289 289 291 314 343 325 312 311 311 308 306 303 303 302 298 301 303 310 312 309 297 300 307 308 311 301 297 300 304 305 301 300 300 293 289
166 143 142 156 193 187 191 246 289 292 298 305 301 285 303 312 313 312 306 305 304 300 293 301 314 304 306 310 308 288 278 288 298 305 302 296 300 302 307 310 310 307 297
148 142 149 166 195 186 193 235 258 275 286 294 297 297 303 310 310 309 307 310 304 299 294 296 300 301 302 302 308 306 299 292 281 289 300 306 305 302 302 304 301 296 288
139 142 153 181 197 185 203 228 244 270 288 299 303 305 304 297 301 306 312 313 306 299 296 296 298 302 301 302 307 304 301 297 294 287 289 296 299 299 297 295 290 285 281
Height
1614 1612 1609 1607 1605 1602 1600 1597 1595 1592 1590 1587 1585 1582 1580 1577 1575 1573 1571 1569 1567 1565 1563 1561 1559 1557 1555 1553 1552 1550 1549 1548 1546 1546 1546 1547 1547 1546 1546 1546 1546 1546 1546
1613 1611 1608 1606 1604 1601 1599 1596 1594 1592 1589 1587 1584 1582 1579 1577 1574 1572 1570 1568 1566 1564 1562 1560 1558 1556 1554 1552 1550 1548 1546 1545 1543 1543 1543 1543 1543 1543 1543 1543 1543 1543 1544
1612 1610 1608 1605 1603 1601 1598 1596 1593 1591 1588 1586 1583 1581 1578 1576 1573 1571 1568 1566 1564 1562 1560 1558 1557 1555 1553 1551 1548 1546 1544 1542 1540 1540 1540 1540 1540 1540 1539 1539 1540 1540 1540
1610 1608 1607 1605 1603 1600 1598 1595 1593 1590 1588 1585 1583 1580 1577 1575 1572 1570 1567 1564 1562 1560 1558 1556 1554 1552 1551 1549 1547 1545 1542 1539 1537 1536 1536 1535 1535 1536 1536 1535 1536 1536 1537
1609 1608 1606 1604 1602 1599 1597 1594 1592 1589 1587 1584 1582 1579 1576 1574 1571 1569 1566 1563 1560 1558 1556 1554 1551 1549 1547 1545 1544 1542 1540 1538 1535 1533 1532 1532 1531 1531 1531 1531 1531 1532 1532
1608 1607 1605 1603 1600 1598 1595 1593 1590 1588 1586 1583 1581 1578 1576 1573 1570 1568 1565 1562 1559 1556 1554 1551 1549 1546 1544 1542 1540 1538 1537 1535 1533 1530 1528 1527 1527 1526 1527 1526 1526 1527 1528
1607 1606 1604 1602 1599 1597 1594 1592 1590 1587 1585 1583 1580 1577 1575 1572 1570 1567 1564 1560 1557 1555 1552 1549 1546 1543 1541 1538 1536 1534 1531 1530 1529 1527 1525 1523 1522 1522 1522 1521 1521 1522 1522
1606 1605 1603 1601 1599 1596 1594 1591 1589 1586 1584 1582 1579 1576 1573 1571 1568 1565 1562 1558 1555 1552 1549 1546 1543 1540 1537 1535 1532 1530 1527 1525 1523 1522 1522 1520 1518 1518 1517 1516 1515 1516 1517
1604 1603 1602 1600 1598 1595 1593 1590 1588 1585 1583 1581 1578 1576 1573 1570 1567 1564 1560 1557 1553 1550 1547 1543 1540 1537 1534 1531 1528 1526 1523 1521 1518 1517 1516 1516 1515 1514 1512 1511 1510 1510 1511
1603 1602 1600 1599 1597 1594 1591 1589 1587 1585 1583 1580 1578 1575 1572 1569 1566 1563 1559 1556 1552 1549 1545 1541 1538 1534 1530 1527 1524 1521 1518 1515 1513 1512 1511 1510 1510 1509 1508 1506 1504 1504 1504
1601 1600 1598 1597 1595 1593 1590 1588 1586 1584 1581 1579 1576 1573 1570 1567 1564 1560 1557 1554 1550 1546 1542 1539 1535 1531 1526 1522 1519 1516 1512 1509 1507 1505 1504 1504 1504 1504 1503 1500 1498 1498 1497
1600 1598 1596 1595 1593 1591 1588 1586 1584 1582 1579 1576 1573 1570 1567 1564 1560 1557 1553 1550 1546 1542 1538 1535 1531 1526 1522 1517 1514 1510 1507 1504 1502 1499 1498 1498 1498 1497 1496 1495 1493 1491 1491
1597 1596 1594 1592 1590 1588 1586 1583 1581 1579 1576 1573 1571 1567 1564 1560 1556 1552 1548 1544 1540 1536 1532 1528 1525 1521 1517 1513 1509 1505 1502 1499 1497 1494 1492 1491 1490 1489 1489 1488 1486 1485 1484
1594 1593 1592 1590 1588 1586 1583 1581 1578 1576 1573 1570 1567 1563 1559 1555 1551 1547 1543 1539 1535 1531 1527 1524 1520 1516 1512 1509 1505 1501 1498 1495 1491 1488 1485 1484 1483 1482 1481 1480 1479 1478 1477
1591 1590 1589 1587 1585 1583 1581 1578 1575 1573 1570 1567 1564 1560 1556 1551 1547 1543 1539 1535 1531 1527 1524 1520 1516 1512 1508 1504 1500 1497 1493 1488 1485 1482 1478 1476 1475 1473 1473 1472 1472 1471 1471
1588 1587 1586 1585 1583 1580 1578 1575 1572 1569 1567 1564 1561 1557 1553 1548 1544 1540 1535 1531 1528 1524 1521 1517 1513 1509 1505 1501 1497 1493 1488 1484 1479 1475 1472 1468 1466 1465 1464 1464 1464 1463 1463
1584 1583 1582 1581 1580 1577 1575 1572 1569 1566 1564 1561 1558 1554 1550 1546 1541 1537 1532 1529 1525 1521 1517 1514 1510 1506 1502 1498 1493 1488 1484 1479 1474 1470 1465 1461 1458 1456 1455 1455 1455 1455 1456
1580 1579 1578 1578 1576 1574 1571 1569 1566 1564 1561 1558 1555 1552 1547 1543 1539 1534 1530 1526 1522 1519 1515 1511 1507 1503 1498 1494 1489 1484 1479 1474 1469 1464 1459 1455 1451 1448 1446 1446 1447 1447 1448
1576 1575 1574 1574 1572 1570 1568 1565 1563 1561 1558 1556 1552 1548 1544 1540 1536 1532 1527 1523 1520 1516 1512 1509 1505 1500 1495 1490 1485 1480 1475 1469 1464 1459 1454 1449 1444 1441 1439 1438 1439 1440 1440
1571 1571 1570 1570 1568 1567 1565 1563 1560 1558 1556 1553 1549 1546 1542 1538 1533 1529 1524 1521 1517 1513 1509 1506 1502 1497 1492 1487 1481 1475 1470 1464 1459 1453 1449 1444 1438 1435 1434 1433 1433 1432 1432
1566 1566 1566 1566 1564 1563 1561 1559 1557 1554 1552 1549 1546 1543 1539 1535 1530 1526 1522 1518 1514 1511 1507 1503 1499 1494 1488 1484 1477 1470 1464 1459 1453 1448 1444 1438 1433 1429 1427 1426 1426 1425 1424
1561 1562 1562 1561 1561 1559 1558 1555 1553 1550 1548 1545 1543 1540 1536 1531 1527 1523 1519 1515 1511 1508 1504 1500 1496 1491 1485 1481 1475 1467 1459 1453 1448 1444 1439 1434 1429 1425 1421 1419 1418 1418 1418
1556 1556 1557 1557 1557 1556 1554 1552 1549 1547 1545 1542 1540 1536 1532 1528 1524 1520 1516 1512 1509 1505 1501 1497 1494 1489 1483 1476 1473 1468 1459 1450 1443 1437 1433 1429 1425 1421 1417 1414 1413 1413 1413
1551 1551 1552 1553 1553 1552 1550 1548 1546 1544 1541 1539 1535 1531 1528 1525 1521 1517 1513 1509 1506 1502 1498 1495 1491 1486 1481 1474 1468 1463 1459 1451 1444 1433 1427 1424 1421 1417 1413 1411 1409 1408 1408
1546 1546 1548 1549 1549 1548 1546 1544 1542 1540 1538 1535 1531 1528 1524 1521 1517 1513 1510 1506 1502 1499 1495 1491 1487 1483 1478 1472 1466 1459 1453 1447 1441 1436 1426 1419 1415 1412 1409 1407 1405 1403 1403
1540 1540 1543 1545 1544 1544 1542 1540 1539 1537 1534 1531 1528 1524 1520 1516 1513 1510 1506 1502 1498 1495 1491 1487 1483 1479 1474 1469 1463 1457 1450 1444 1437 1432 1425 1418 1413 1407 1405 1403 1401 1400 1398